Regional Weather Roundup
Issued by NWS

Home | Current Version | Previous Version | Graphics & Text | Print | Product List | Glossary On
Versions: 1 2 3 4 5 6 7 8 9 10 11 12 13 14 15 16 17 18 19 20 21 22 23 24 25 26 27 28 29 30 31 32 33 34 35 36 37 38 39 40 41 42 43 44 45 46 47 48 49 50
000
ASUS43 KFSD 291110
RWRSD

WEATHER ROUNDUP FOR SOUTH DAKOTA
NATIONAL WEATHER SERVICE SIOUX FALLS SD
600 AM CDT TUE JUL 29 2014

NOTE: "FAIR" INDICATES FEW OR NO CLOUDS BELOW 12,000 FEET WITH NO
SIGNIFICANT WEATHER AND/OR OBSTRUCTIONS TO VISIBILITY.


SDZ001>005-009-010-012>017-291200-
NORTHWEST AND NORTH CENTRAL SOUTH DAKOTA

CITY           SKY/WX    TMP DP  RH WIND       PRES   REMARKS
BUFFALO          N/A     57  51  80 S5        30.19S
FAITH            N/A     55  50  83 S8        30.24R
MOBRIDGE       CLEAR     50  49  96 E5        30.21R
$$

SDZ012>016-024>037-041>051-057-063-072>074-291200-
SOUTHWEST AND SOUTH CENTRAL SOUTH DAKOTA

CITY           SKY/WX    TMP DP  RH WIND       PRES   REMARKS
RAPID CTY ARPT CLEAR     53  49  86 CALM      30.26S
PIERRE         CLEAR     52  50  93 E3        30.21S
CUSTER         CLOUDY    54  47  77 W10       30.37R
ELLSWORTH AFB  CLEAR     57  51  80 SW5       30.26S
PHILIP         CLEAR     52  48  86 W6        30.23R
PINE RIDGE     CLOUDY    62  54  74 E8        30.24R
WINNER         FAIR      54  49  83 E5        30.23R
$$

SDZ004>011-016>023-039-040-291200-
NORTHEAST SOUTH DAKOTA

CITY           SKY/WX    TMP DP  RH WIND       PRES   REMARKS
ABERDEEN       PTCLDY    43  43 100 CALM      30.22S FOG
WATERTOWN      CLOUDY    50  49  96 CALM      30.21F
SISSETON         N/A     51  50  96 N3        30.18F
$$

SDZ017-020-022-023-036>040-048>070-291200-
SOUTHEAST SOUTH DAKOTA

CITY           SKY/WX    TMP DP  RH WIND       PRES   REMARKS
SIOUX FALLS    PTCLDY    51  49  92 CALM      30.21S
HURON          CLEAR     48  47  96 CALM      30.21S FOG
CHAMBERLAIN    CLEAR     45  43  95 CALM      30.22S
MITCHELL       CLEAR     50  49  96 NW5       30.23R
YANKTON        CLEAR     52  48  87 NW5       30.22R
$$

ABBREVIATIONS USED IN REMARKS
   TC - TEMPERATURE IN CELSIUS
  WCI - WIND CHILL INDEX
   HX - HEAT INDEX
  VSB - VISIBILITY



USA.gov is the U.S. government's official web portal to all federal, state and local government web resources and services.